| time (UTC) | temp F | wind direction | speed MPH | gust MPH | rain 1hr in | rain 24hr in | rain mn in | humidity % | barometer mb |
| 20260510104554 | 68 | 109 | 2.0 | 9.0 | 0.00 | 0.00 | 0.00 | 77 | 991.5 |
| 20260510103042 | 68 | 103 | 4.0 | 9.0 | 0.00 | 0.00 | 0.00 | 76 | 991.2 |
| 20260510101540 | 68 | 82 | 3.0 | 11.0 | 0.00 | 0.00 | 0.00 | 76 | 991.3 |
| 20260510100055 | 70 | 76 | 2.0 | 8.0 | 0.00 | 0.00 | 0.00 | 72 | 991.5 |
| 20260510094537 | 71 | 356 | 2.0 | 8.0 | 0.00 | 0.00 | 0.00 | 72 | 991.3 |
| 20260510093031 | 71 | 101 | 2.0 | 13.0 | 0.00 | 0.00 | 0.00 | 74 | 990.7 |
| 20260510091528 | 71 | 57 | 4.0 | 18.0 | 0.00 | 0.00 | 0.00 | 74 | 990.8 |
| 20260510090027 | 72 | 328 | 5.0 | 23.0 | 0.00 | 0.00 | 0.00 | 73 | 990.8 |
| 20260510084526 | 74 | 1 | 0.0 | 12.0 | 0.00 | 0.00 | 0.00 | 81 | 990.1 |
| 20260510083021 | 75 | 358 | 0.0 | 4.0 | 0.00 | 0.00 | 0.00 | 80 | 989.6 |
| 20260510081518 | 75 | 22 | 2.0 | 7.0 | 0.00 | 0.00 | 0.00 | 80 | 989.7 |
| 20260510080020 | 74 | 360 | 0.0 | 3.0 | 0.00 | 0.00 | 0.00 | 80 | 989.6 |
| 20260510074516 | 75 | 117 | 0.0 | 0.0 | 0.00 | 0.00 | 0.00 | 79 | 988.5 |
| 20260510073014 | 75 | 117 | 0.0 | 4.0 | 0.00 | 0.00 | 0.00 | 78 | 988.3 |
| 20260510071514 | 75 | 106 | 0.0 | 3.0 | 0.00 | 0.00 | 0.00 | 77 | 988.3 |
| 20260510070013 | 76 | 116 | 1.0 | 6.0 | 0.00 | 0.00 | 0.00 | 76 | 987.9 |
| 20260510064509 | 76 | 104 | 6.0 | 12.0 | 0.00 | 0.00 | 0.00 | 75 | 987.9 |
| 20260510063010 | 77 | 19 | 4.0 | 16.0 | 0.00 | 0.00 | 0.00 | 73 | 989.2 |
| 20260510061505 | 77 | 274 | 2.0 | 14.0 | 0.00 | 0.00 | 0.00 | 69 | 990.2 |
| 20260510060002 | 77 | 306 | 4.0 | 11.0 | 0.00 | 0.00 | 0.00 | 67 | 989.8 |
| 20260510054604 | 76 | 82 | 0.0 | 2.0 | 0.00 | 0.00 | 0.00 | 67 | 987.7 |
| 20260510053053 | 77 | 94 | 0.0 | 3.0 | 0.00 | 0.00 | 0.00 | 66 | 986.9 |
| 20260510051552 | 77 | 129 | 1.0 | 3.0 | 0.00 | 0.00 | 0.00 | 65 | 987.1 |
| 20260510050053 | 77 | 117 | 1.0 | 4.0 | 0.00 | 0.00 | 0.00 | 64 | 986.8 |
| 20260510044555 | 78 | 110 | 2.0 | 6.0 | 0.00 | 0.00 | 0.00 | 64 | 986.4 |
| 20260510043048 | 78 | 111 | 1.0 | 6.0 | 0.00 | 0.00 | 0.00 | 64 | 986.3 |
| 20260510041553 | 78 | 108 | 2.0 | 5.0 | 0.00 | 0.00 | 0.00 | 64 | 986.5 |
| 20260510040046 | 78 | 142 | 1.0 | 6.0 | 0.00 | 0.00 | 0.00 | 63 | 986.7 |
| 20260510034548 | 78 | 143 | 1.0 | 4.0 | 0.00 | 0.00 | 0.00 | 62 | 986.7 |
| 20260510033058 | 78 | 148 | 1.0 | 5.0 | 0.00 | 0.00 | 0.00 | 61 | 986.9 |
| 20260510031544 | 79 | 123 | 0.0 | 3.0 | 0.00 | 0.00 | 0.00 | 60 | 986.9 |
| 20260510030044 | 80 | 73 | 1.0 | 3.0 | 0.00 | 0.00 | 0.00 | 58 | 986.9 |
| 20260510024545 | 81 | 124 | 2.0 | 4.0 | 0.00 | 0.00 | 0.00 | 56 | 986.9 |
| 20260510023043 | 81 | 113 | 2.0 | 5.0 | 0.00 | 0.00 | 0.00 | 55 | 986.8 |
| 20260510021542 | 81 | 82 | 2.0 | 4.0 | 0.00 | 0.00 | 0.00 | 54 | 986.5 |
| 20260510020041 | 82 | 120 | 2.0 | 5.0 | 0.00 | 0.00 | 0.00 | 54 | 986.4 |
| 20260510014540 | 82 | 127 | 2.0 | 5.0 | 0.00 | 0.00 | 0.00 | 54 | 986.3 |
| 20260510013042 | 83 | 96 | 2.0 | 6.0 | 0.00 | 0.00 | 0.00 | 54 | 986.1 |
| 20260510011538 | 83 | 100 | 2.0 | 6.0 | 0.00 | 0.00 | 0.00 | 54 | 985.8 |
| 20260510010037 | 84 | 120 | 2.0 | 5.0 | 0.00 | 0.00 | 0.00 | 56 | 985.6 |
| 20260510004537 | 85 | 84 | 2.0 | 7.0 | 0.00 | 0.00 | 0.00 | 55 | 985.5 |
| 20260510003051 | 85 | 25 | 2.0 | 5.0 | 0.00 | 0.00 | 0.00 | 55 | 985.5 |
| 20260510001540 | 86 | 328 | 2.0 | 5.0 | 0.00 | 0.00 | 0.00 | 54 | 985.4 |
| 20260510000036 | 87 | 105 | 2.0 | 7.0 | 0.00 | 0.00 | 0.00 | 54 | 985.5 |
| 20260509234537 | 88 | 2 | 2.0 | 4.0 | 0.00 | 0.00 | 0.00 | 51 | 985.6 |
| 20260509233030 | 88 | 323 | 1.0 | 3.0 | 0.00 | 0.00 | 0.00 | 45 | 985.7 |
| 20260509231528 | 88 | 253 | 1.0 | 4.0 | 0.00 | 0.00 | 0.00 | 45 | 985.7 |
| 20260509230027 | 89 | 122 | 3.0 | 6.0 | 0.00 | 0.00 | 0.00 | 45 | 985.7 |
| 20260509224525 | 89 | 249 | 1.0 | 4.0 | 0.00 | 0.00 | 0.00 | 43 | 985.5 |
| 20260509223024 | 89 | 73 | 2.0 | 6.0 | 0.00 | 0.00 | 0.00 | 45 | 985.6 |
| 20260509221526 | 89 | 124 | 1.0 | 4.0 | 0.00 | 0.00 | 0.00 | 45 | 985.6 |
| 20260509220021 | 89 | 319 | 0.0 | 4.0 | 0.00 | 0.00 | 0.00 | 41 | 985.7 |
| 20260509214530 | 88 | 305 | 1.0 | 6.0 | 0.00 | 0.00 | 0.00 | 43 | 985.8 |
| 20260509213019 | 89 | 66 | 1.0 | 5.0 | 0.00 | 0.00 | 0.00 | 44 | 985.9 |
| 20260509211521 | 88 | 13 | 2.0 | 6.0 | 0.00 | 0.00 | 0.00 | 44 | 986.2 |
| 20260509210015 | 89 | 138 | 2.0 | 7.0 | 0.00 | 0.00 | 0.00 | 49 | 986.4 |
| 20260509204524 | 88 | 6 | 2.0 | 6.0 | 0.00 | 0.00 | 0.00 | 47 | 986.7 |
| 20260509203010 | 88 | 218 | 2.0 | 6.0 | 0.00 | 0.00 | 0.00 | 47 | 986.9 |
| 20260509201508 | 88 | 11 | 3.0 | 8.0 | 0.00 | 0.00 | 0.00 | 49 | 987.1 |
| 20260509200009 | 87 | 5 | 1.0 | 5.0 | 0.00 | 0.00 | 0.00 | 51 | 987.3 |
| 20260509194506 | 87 | 349 | 2.0 | 6.0 | 0.00 | 0.00 | 0.00 | 51 | 987.5 |
| 20260509193003 | 87 | 68 | 2.0 | 7.0 | 0.00 | 0.00 | 0.00 | 54 | 987.6 |
| 20260509191504 | 86 | 46 | 2.0 | 5.0 | 0.00 | 0.00 | 0.00 | 57 | 987.6 |
| 20260509190106 | 86 | 99 | 2.0 | 6.0 | 0.00 | 0.00 | 0.00 | 59 | 987.7 |
| 20260509184558 | 85 | 247 | 1.0 | 5.0 | 0.00 | 0.00 | 0.00 | 62 | 987.8 |
| 20260509183055 | 85 | 49 | 3.0 | 6.0 | 0.00 | 0.00 | 0.00 | 63 | 987.9 |
| 20260509181603 | 84 | 357 | 2.0 | 8.0 | 0.00 | 0.00 | 0.00 | 62 | 988.2 |
| 20260509180050 | 85 | 50 | 3.0 | 9.0 | 0.00 | 0.00 | 0.00 | 63 | 988.2 |
| 20260509174557 | 84 | 359 | 3.0 | 10.0 | 0.00 | 0.00 | 0.00 | 64 | 988.4 |
| 20260509173050 | 83 | 76 | 3.0 | 8.0 | 0.00 | 0.00 | 0.00 | 64 | 988.4 |
| 20260509171549 | 83 | 7 | 2.0 | 5.0 | 0.00 | 0.00 | 0.00 | 64 | 988.6 |
| 20260509170043 | 82 | 304 | 4.0 | 7.0 | 0.00 | 0.00 | 0.00 | 62 | 988.7 |
| 20260509164539 | 82 | 313 | 3.0 | 6.0 | 0.00 | 0.00 | 0.00 | 61 | 988.8 |
| 20260509163035 | 82 | 322 | 2.0 | 7.0 | 0.00 | 0.00 | 0.00 | 62 | 988.8 |
| 20260509161532 | 81 | 1 | 3.0 | 7.0 | 0.00 | 0.00 | 0.00 | 63 | 988.7 |
| 20260509160030 | 80 | 17 | 3.0 | 7.0 | 0.00 | 0.00 | 0.00 | 64 | 988.7 |
| 20260509154529 | 80 | 71 | 2.0 | 5.0 | 0.00 | 0.00 | 0.00 | 64 | 988.6 |
| 20260509153029 | 79 | 309 | 1.0 | 5.0 | 0.00 | 0.00 | 0.00 | 66 | 988.7 |
| 20260509151520 | 78 | 304 | 2.0 | 7.0 | 0.00 | 0.00 | 0.00 | 68 | 988.7 |
| 20260509150020 | 77 | 286 | 3.0 | 7.0 | 0.00 | 0.00 | 0.00 | 71 | 988.8 |
| 20260509144515 | 76 | 306 | 1.0 | 5.0 | 0.00 | 0.00 | 0.00 | 74 | 988.9 |
| 20260509143017 | 75 | 336 | 1.0 | 8.0 | 0.00 | 0.00 | 0.00 | 77 | 988.8 |
| 20260509141507 | 74 | 324 | 3.0 | 6.0 | 0.00 | 0.00 | 0.00 | 78 | 988.8 |
| 20260509140005 | 74 | 32 | 1.0 | 7.0 | 0.00 | 0.00 | 0.00 | 79 | 988.8 |
| 20260509134502 | 73 | 20 | 1.0 | 5.0 | 0.00 | 0.00 | 0.00 | 82 | 988.7 |
| 20260509133104 | 71 | 321 | 1.0 | 6.0 | 0.00 | 0.00 | 0.00 | 84 | 988.6 |
| 20260509131559 | 70 | 1 | 1.0 | 7.0 | 0.00 | 0.00 | 0.00 | 85 | 988.6 |
| 20260509130104 | 69 | 344 | 2.0 | 6.0 | 0.00 | 0.00 | 0.00 | 86 | 988.6 |
| 20260509124557 | 69 | 303 | 1.0 | 7.0 | 0.00 | 0.13 | 0.00 | 87 | 988.4 |
| 20260509123050 | 68 | 70 | 2.0 | 8.0 | 0.00 | 0.13 | 0.00 | 87 | 988.5 |
| 20260509121559 | 68 | 304 | 2.0 | 5.0 | 0.00 | 0.13 | 0.00 | 87 | 988.5 |
| 20260509120045 | 68 | 328 | 2.0 | 8.0 | 0.00 | 0.13 | 0.00 | 86 | 988.4 |
| 20260509114545 | 68 | 299 | 3.0 | 5.0 | 0.00 | 0.13 | 0.00 | 86 | 988.3 |
| 20260509113047 | 68 | 318 | 2.0 | 7.0 | 0.00 | 0.13 | 0.00 | 85 | 987.9 |
| 20260509111539 | 67 | 319 | 2.0 | 6.0 | 0.00 | 0.13 | 0.00 | 86 | 987.5 |
| 20260509110038 | 67 | 311 | 0.0 | 2.0 | 0.00 | 0.13 | 0.00 | 86 | 987.2 |